Location: Bad Dürkheim
(49.4618°N, 8.1724°E)
Time: 21:16:09
(UTC+00:00)

Cosmos 1954 Rocket - Pass Details

Date: 14 June 2025
Orbit: 749 x 776 km, 74.0° (Epoch: 16 July)

Event Time Altitude Azimuth Distance (km) Brightness Sun altitude
Exits shadow 23:07:48 30° 175° (S) 1,346 4.7 -17.1°
Maximum altitude 23:10:15 59° 108° (ESE) 878 4.1 -17.1°
Drops below altitude 10° 23:15:22 10° 30° (NNE) 2,295 7.3 -17.2°
Sets 23:17:45 0° 27° (NNE) 3,221 8.3 -17.2°
